[[{"header":{"parameterUnit":"m.s-1","parameterCategory":1,"la1":30.2991,"la2":30.254,"lo1":-89.0895,"lo2":-89.0444,"dy":0.0017,"dx":0.0017,"nx":28,"ny":28,"refTime":"2025-01-29T03:00:00:Z","depth":0,"parameterNumber":2,"parameterNumberName":"U-component_of_WINDS"},"data":[0,0,0,0,0,0,0,0,0,0,0,0,0,0,0,0,0,0,0,0,0,0,0,0,0,0,0,0,0,0,0,0,0,0,0,0,0,0,0,0,0,0,0,0,0,0,0,0,0,0,0,0,0,0,0,0,0,0,-2.1723,-2.1723,0,-2.1714,-2.1714,-2.1714,-2.1647,-2.1646,-2.1644,-2.1642,-2.1633,-2.1634,-2.1635,0,0,0,0,0,0,0,0,0,0,0,0,0,-2.1686,-2.1687,-2.1724,-2.1723,-2.1723,-2.1714,-2.1714,-2.1714,-2.1647,-2.1646,-2.1644,-2.1642,-2.1633,-2.1634,-2.1636,0,0,0,0,0,0,0,0,0,0,0,0,0,-2.1692,-2.1687,-2.1724,-2.1689,-2.1686,-2.1714,-2.1714,-2.1713,-2.1648,-2.1645,-2.1643,-2.1641,-2.1632,-2.1634,-2.1636,-2.1696,0,0,-2.1642,-2.1642,0,0,0,0,0,0,0,0,-2.1691,-2.1693,-2.1694,-2.1692,-2.1688,-2.1679,-2.1697,-2.1708,-2.1649,-2.1662,-2.1642,-2.164,-2.165,-2.1651,-2.1654,-2.1696,-2.1695,-2.1642,-2.1643,-2.1644,-2.1644,0,0,0,0,0,0,0,-2.1691,-2.1693,-2.172,-2.1694,-2.1691,-2.1674,-2.1673,-2.1699,-2.167,-2.1661,-2.1656,-2.1656,-2.1648,-2.1653,-2.1653,-2.1695,-2.1642,-2.1643,-2.1645,-2.1645,-2.1786,-2.1788,0,0,0,0,0,0,-2.1695,-2.1693,-2.172,-2.1719,-2.1684,-2.1677,-2.1675,-2.1685,-2.167,-2.1665,-2.1658,-2.1653,-2.165,-2.1651,-2.1653,-2.1722,-2.1644,-2.1645,-2.1647,-2.1783,-2.1786,-2.1789,0,0,0,0,0,0,-2.1695,-2.1698,-2.172,-2.1705,-2.1707,-2.168,-2.1692,-2.1686,-2.169,-2.1667,-2.1662,-2.1667,-2.1649,-2.165,-2.1686,-2.1721,-2.1646,-2.1648,-2.178,-2.1784,-2.1788,-2.1862,0,0,0,0,0,0,-2.1694,-2.1699,-2.1721,-2.1706,-2.1708,-2.1753,-2.1694,-2.1687,-2.1693,-2.1686,-2.1675,-2.1671,-2.1647,-2.1683,-2.1688,-2.1722,-2.165,-2.1777,-2.1782,-2.1787,-2.1856,-2.1868,-2.1878,0,0,0,0,0,-2.1693,-2.1742,-2.1722,-2.1726,-2.1735,-2.1756,-2.1756,-2.1728,-2.1696,-2.1719,-2.1704,-2.1671,-2.1717,-2.1688,-2.1692,-2.1728,-2.1774,-2.178,-2.1786,-2.1851,-2.1865,-2.1877,0,0,0,0,0,0,-2.1762,-2.174,-2.1717,-2.1763,-2.1762,-2.1744,-2.1771,-2.1744,-2.1751,-2.1745,-2.1709,-2.1707,-2.1748,-2.1741,-2.1709,-2.1785,-2.174,-2.1747,-2.1788,-2.1801,-2.1812,-2.1812,-2.1651,0,0,0,0,0,-2.1783,-2.1801,-2.178,-2.1823,-2.1823,-2.1798,-2.1806,-2.1784,-2.1781,-2.178,-2.1768,-2.1767,-2.1781,-2.1791,-2.1802,-2.1855,-2.1852,-2.1882,-2.1893,-2.1902,-2.1908,-2.1935,-2.1948,-2.1808,-2.1808,-2.1808,0,0,-2.1825,-2.1815,-2.1829,-2.1837,-2.1833,-2.1853,-2.1798,-2.1821,-2.1836,-2.1784,-2.1816,-2.1808,-2.1804,-2.1849,-2.1868,-2.1844,-2.1946,-2.1909,-2.1916,-2.1918,-2.1943,-2.1956,-2.1968,-2.1812,-2.1812,-2.1811,0,0,-2.1913,-2.1908,-2.1942,-2.194,-2.1935,-2.1918,-2.1926,-2.1913,-2.1906,-2.1938,-2.1899,-2.1916,-2.1941,-2.194,-2.1943,-2.2031,-2.2001,-2.2036,-2.2092,-2.2119,-2.213,-2.214,-2.2171,-2.2183,-2.2043,-2.2043,-2.2043,0,-2.1967,-2.1995,-2.1964,-2.199,-2.1994,-2.1948,-2.1983,-2.1983,-2.1982,-2.1986,-2.196,-2.1991,-2.1985,-2.2028,-2.205,-2.2054,-2.2063,-2.2037,-2.2131,-2.2141,-2.2149,-2.2179,-2.2191,-2.2047,-2.2047,-2.2046,-2.2046,0,-2.2061,-2.2081,-2.211,-2.2111,-2.2118,-2.2149,-2.2123,-2.2135,-2.2113,-2.2098,-2.2132,-2.2124,-2.2133,-2.2142,-2.212,-2.2183,-2.2168,-2.2138,-2.2091,-2.2167,-2.2194,-2.2205,-2.2053,-2.2052,-2.205,-2.2049,0,0,-2.2191,-2.2174,-2.2185,-2.2185,-2.2177,-2.2192,-2.2221,-2.223,-2.224,-2.2242,-2.2265,-2.2288,-2.2259,-2.2262,-2.2241,-2.2265,-2.2335,-2.2231,-2.223,-2.225,-2.2403,-2.2426,-2.2439,-2.2315,-2.2317,-2.2319,-2.2403,0,-2.2275,-2.2322,-2.2296,-2.2347,-2.2366,-2.2323,-2.2348,-2.2346,-2.2334,-2.2348,-2.2334,-2.235,-2.2312,-2.2314,-2.2335,-2.2322,-2.2365,-2.2316,-2.2336,-2.2338,-2.2338,-2.2453,-2.2477,-2.2557,-2.2414,-2.2415,-2.2417,0,-2.2379,-2.2385,-2.2438,-2.2426,-2.2433,-2.2456,-2.2462,-2.2476,-2.2473,-2.2463,-2.2467,-2.2439,-2.2467,-2.2422,-2.246,-2.2427,-2.2434,-2.2429,-2.2431,-2.2431,-2.2381,-2.2456,-2.2582,-2.2593,-2.2433,-2.2432,-2.2431,0,-2.2468,-2.2489,-2.2524,-2.2525,-2.2512,-2.253,-2.2525,-2.252,-2.2527,-2.2533,-2.2537,-2.2546,-2.2551,-2.2559,-2.2535,-2.2504,-2.2576,-2.2529,-2.2568,-2.2568,-2.2584,-2.2583,-2.2712,-2.259,-2.259,-2.2589,-2.2589,0,-2.2564,-2.2598,-2.2563,-2.2585,-2.2622,-2.2591,-2.2629,-2.262,-2.2616,-2.2635,-2.2599,-2.2618,-2.2585,-2.2601,-2.2582,-2.2616,-2.2619,-2.2611,-2.2605,-2.2614,-2.2615,-2.2617,-2.2611,-2.2593,-2.2592,-2.2591,-2.2591,0,-2.2669,-2.2647,-2.2682,-2.2668,-2.2665,-2.2693,-2.2681,-2.27,-2.2685,-2.271,-2.2714,-2.2692,-2.2708,-2.2685,-2.2699,-2.2687,-2.2733,-2.272,-2.2734,-2.273,-2.277,-2.2767,-2.2905,-2.2921,-2.279,-2.2791,-2.2792,0,-2.2731,-2.2756,-2.2745,-2.2755,-2.2753,-2.2769,-2.2777,-2.2748,-2.2757,-2.2756,-2.2775,-2.2789,-2.2798,-2.2826,-2.2811,-2.2822,-2.2808,-2.2856,-2.2809,-2.2817,-2.2808,-2.2807,-2.2809,-2.2865,-2.2867,-2.2868,-2.2869,0,-2.2844,-2.2832,-2.2844,-2.2852,-2.2862,-2.2867,-2.2869,-2.288,-2.285,-2.2862,-2.2878,-2.2885,-2.29,-2.2914,-2.2921,-2.2916,-2.2888,-2.2884,-2.2893,-2.2902,-2.2909,-2.2905,-2.276,-2.2881,-2.2879,-2.2879,-2.2878,-2.2877,-2.2929,-2.2949,-2.2945,-2.2959,-2.2958,-2.2961,-2.2979,-2.2967,-2.298,-2.2989,-2.2972,-2.2992,-2.2989,-2.2996,-2.2995,-2.3011,-2.299,-2.3004,-2.3007,-2.3011,-2.3017,-2.2907,-2.3012,-2.3012,-2.3011,-2.3011,-2.3011,0,-2.3039,-2.3034,-2.3048,-2.3052,-2.3064,-2.3036,-2.3038,-2.3049,-2.3068,-2.3068,-2.3077,-2.3096,-2.311,-2.3097,-2.3107,-2.3123,-2.311,-2.3127,-2.3125,-2.3124,-2.3035,-2.3025,-2.3137,-2.3137,-2.3137,-2.3137,-2.3137,-2.3137,-2.3098,-2.3131,-2.3119,-2.3152,-2.3146,-2.3166,-2.317,-2.3173,-2.3172,-2.3195,-2.3206,-2.3197,-2.3191,-2.3201,-2.3213,-2.3208,-2.3214,-2.3235,-2.3226,-2.3143,-2.3131,-2.3119,-2.3109,-2.3237,-2.3237,-2.3314,-2.3315,-2.3315]},{"header":{"parameterUnit":"m.s-1","parameterCategory":1,"la1":30.2991,"la2":30.254,"lo1":-89.0895,"lo2":-89.0444,"dy":0.0017,"dx":0.0017,"nx":28,"ny":28,"refTime":"2025-01-29T03:00:00:Z","depth":0,"parameterNumber":3,"parameterNumberName":"V-component_of_WINDS"},"data":[0,0,0,0,0,0,0,0,0,0,0,0,0,0,0,0,0,0,0,0,0,0,0,0,0,0,0,0,0,0,0,0,0,0,0,0,0,0,0,0,0,0,0,0,0,0,0,0,0,0,0,0,0,0,0,0,0,0,0.3702,0.3703,0,0.3748,0.3748,0.3749,0.3783,0.3783,0.3784,0.3784,0.383,0.3831,0.3832,0,0,0,0,0,0,0,0,0,0,0,0,0,0.3645,0.3646,0.3702,0.3703,0.3704,0.3748,0.3748,0.3749,0.3783,0.3783,0.3784,0.3784,0.3829,0.3831,0.3832,0,0,0,0,0,0,0,0,0,0,0,0,0,0.3678,0.3646,0.3702,0.3726,0.3728,0.3748,0.3748,0.3749,0.3783,0.3783,0.3784,0.3784,0.3829,0.383,0.3832,0.3831,0,0,0.3836,0.3837,0,0,0,0,0,0,0,0,0.3676,0.368,0.3722,0.3724,0.3727,0.376,0.3745,0.3777,0.3783,0.3762,0.3784,0.3784,0.3806,0.381,0.3817,0.3833,0.3835,0.3836,0.3837,0.3838,0.3838,0,0,0,0,0,0,0,0.3674,0.3679,0.372,0.3722,0.3726,0.3734,0.3739,0.3751,0.3781,0.3764,0.3767,0.3771,0.3808,0.3816,0.3818,0.3836,0.3836,0.3837,0.3838,0.3839,0.3855,0.3855,0,0,0,0,0,0,0.3668,0.3676,0.3719,0.3722,0.3702,0.3735,0.3741,0.3749,0.3781,0.3786,0.3771,0.3773,0.3813,0.3817,0.382,0.3822,0.3838,0.3839,0.384,0.3856,0.3855,0.3855,0,0,0,0,0,0,0.3667,0.3672,0.3717,0.37,0.3706,0.3735,0.3745,0.375,0.3758,0.3786,0.3792,0.3774,0.3813,0.3818,0.3829,0.3824,0.384,0.3841,0.3856,0.3856,0.3855,0.3826,0,0,0,0,0,0,0.3665,0.3671,0.3671,0.37,0.3707,0.3725,0.3744,0.375,0.376,0.3763,0.379,0.3795,0.3814,0.3826,0.383,0.3827,0.3842,0.3857,0.3856,0.3855,0.3828,0.3825,0.3822,0,0,0,0,0,0.3663,0.3661,0.3671,0.3676,0.3708,0.3724,0.3729,0.3751,0.376,0.376,0.3779,0.3794,0.3824,0.3827,0.3831,0.3828,0.3857,0.3856,0.3855,0.3829,0.3825,0.3822,0,0,0,0,0,0,0.363,0.3665,0.3676,0.3683,0.3701,0.373,0.3731,0.3746,0.3761,0.3763,0.379,0.3796,0.3804,0.3817,0.382,0.383,0.3843,0.3843,0.3821,0.3818,0.3815,0.3812,0.3843,0,0,0,0,0,0.3624,0.3635,0.3664,0.3668,0.3676,0.3702,0.371,0.3726,0.3745,0.3752,0.3771,0.3789,0.3803,0.3811,0.3825,0.383,0.3837,0.383,0.3827,0.3825,0.3825,0.3829,0.3827,0.3852,0.3852,0.3852,0,0,0.3611,0.3631,0.3636,0.3662,0.3677,0.3688,0.3708,0.3718,0.3726,0.3754,0.3765,0.378,0.3801,0.3809,0.3813,0.3821,0.3819,0.3824,0.3821,0.3823,0.3828,0.3825,0.3823,0.3851,0.3851,0.3851,0,0,0.3593,0.3609,0.3614,0.3629,0.3652,0.367,0.3671,0.3698,0.3709,0.3721,0.3742,0.3752,0.3775,0.379,0.38,0.3788,0.3804,0.3792,0.3778,0.3782,0.378,0.3778,0.3775,0.3773,0.3792,0.3791,0.3791,0,0.3574,0.3591,0.3615,0.3624,0.3635,0.3661,0.3666,0.368,0.3706,0.3713,0.372,0.375,0.3766,0.3778,0.3775,0.3783,0.3785,0.3789,0.3778,0.3777,0.3776,0.3773,0.3771,0.379,0.379,0.379,0.379,0,0.3568,0.3579,0.358,0.3606,0.3616,0.3624,0.3649,0.3657,0.3672,0.3688,0.37,0.3721,0.374,0.3744,0.3758,0.3758,0.3762,0.3773,0.3787,0.3772,0.3769,0.3768,0.3788,0.3788,0.3789,0.3789,0,0,0.3531,0.3569,0.3569,0.3582,0.3609,0.3618,0.3627,0.3646,0.3653,0.367,0.3678,0.3697,0.3708,0.372,0.3736,0.374,0.373,0.3751,0.3752,0.3747,0.3733,0.3724,0.3722,0.374,0.374,0.374,0.3731,0,0.3518,0.3535,0.3557,0.3567,0.3578,0.3602,0.361,0.3628,0.3644,0.3656,0.3673,0.3686,0.37,0.3707,0.3712,0.373,0.3728,0.3731,0.3749,0.3749,0.3743,0.3721,0.3712,0.3703,0.373,0.373,0.373,0,0.3505,0.3522,0.3533,0.356,0.3566,0.3572,0.3592,0.3602,0.3623,0.3635,0.3648,0.3666,0.3676,0.3688,0.3703,0.3705,0.3713,0.3724,0.3724,0.3727,0.3739,0.3724,0.37,0.3699,0.3729,0.3729,0.3729,0,0.3478,0.3503,0.3513,0.3523,0.3554,0.3559,0.3572,0.3593,0.3603,0.362,0.3627,0.3645,0.3655,0.3668,0.369,0.3696,0.3703,0.3716,0.3714,0.3713,0.3714,0.3714,0.3692,0.3718,0.3718,0.3718,0.3718,0,0.3462,0.3468,0.3502,0.3508,0.3516,0.3541,0.3548,0.3563,0.3582,0.3592,0.3614,0.3623,0.3651,0.3663,0.368,0.3691,0.3695,0.3704,0.3709,0.3703,0.3702,0.3709,0.3711,0.3718,0.3718,0.3718,0.3718,0,0.3434,0.3456,0.3469,0.3498,0.3506,0.351,0.3535,0.3542,0.356,0.3572,0.3576,0.3603,0.3619,0.3642,0.3664,0.3676,0.3684,0.3691,0.3677,0.368,0.3676,0.3677,0.3659,0.3658,0.3684,0.3684,0.3683,0,0.3422,0.3428,0.3457,0.3466,0.3479,0.3491,0.3502,0.3527,0.3537,0.3562,0.3566,0.3583,0.3599,0.3622,0.3644,0.3661,0.3669,0.3662,0.3672,0.3666,0.367,0.367,0.3671,0.366,0.3659,0.3659,0.3659,0,0.34,0.3411,0.3426,0.3444,0.3456,0.3472,0.3489,0.3495,0.3523,0.3534,0.355,0.3562,0.3585,0.3602,0.3623,0.3637,0.3653,0.3655,0.3656,0.365,0.3642,0.3647,0.3672,0.3656,0.3656,0.3656,0.3657,0.3657,0.338,0.3386,0.3409,0.3424,0.344,0.3455,0.3464,0.3482,0.3496,0.3517,0.3531,0.3547,0.3568,0.3597,0.361,0.3623,0.363,0.363,0.3631,0.363,0.3629,0.3639,0.3627,0.3627,0.3627,0.3627,0.3627,0,0.336,0.3375,0.339,0.3413,0.3425,0.3439,0.3459,0.3468,0.3482,0.35,0.3515,0.3534,0.3551,0.3574,0.3593,0.3599,0.3607,0.3603,0.3603,0.3606,0.3621,0.3619,0.3596,0.3596,0.3596,0.3596,0.3596,0.3596,0.3351,0.3362,0.3376,0.3395,0.3411,0.3427,0.3437,0.3452,0.3467,0.3487,0.3501,0.3516,0.3537,0.3557,0.3573,0.358,0.3586,0.358,0.3589,0.3602,0.3605,0.3608,0.3606,0.3581,0.3581,0.3573,0.3573,0.3573]}]]